Time,TemperatureF,DewpointF,PressureIn,WindDirection,WindDirectionDegrees,WindSpeedMPH,WindSpeedGustMPH,Humidity,HourlyPrecipIn,Conditions,Clouds,dailyrainin,SoftwareType,DateUTC
2013-04-29 00:01:00,57.7,42.6,30.17,SE,136,1.0,3.0,57,0.00,,,0.00,WUHU216DAVISVP2,2013-04-29 04:01:00,
2013-04-29 00:06:00,57.7,43.0,30.17,SSE,149,0.0,3.0,58,0.00,,,0.00,WUHU216DAVISVP2,2013-04-29 04:06:00,
2013-04-29 00:11:00,57.7,43.0,30.17,SSE,149,1.0,3.0,58,0.00,,,0.00,WUHU216DAVISVP2,2013-04-29 04:11:00,
2013-04-29 00:16:00,57.6,42.9,30.17,SE,128,0.0,3.0,58,0.00,,,0.00,WUHU216DAVISVP2,2013-04-29 04:16:00,
2013-04-29 00:21:00,57.6,43.4,30.17,East,93,1.0,3.0,59,0.00,,,0.00,WUHU216DAVISVP2,2013-04-29 04:21:00,
2013-04-29 00:26:00,57.5,43.3,30.17,SSE,153,0.0,3.0,59,0.00,,,0.00,WUHU216DAVISVP2,2013-04-29 04:26:00,
2013-04-29 00:31:00,57.5,43.7,30.16,ESE,117,0.0,4.0,60,0.00,,,0.00,WUHU216DAVISVP2,2013-04-29 04:31:00,
2013-04-29 00:36:00,57.5,44.1,30.16,East,101,1.0,6.0,61,0.00,,,0.00,WUHU216DAVISVP2,2013-04-29 04:36:00,
2013-04-29 00:41:00,57.4,44.5,30.16,ESE,107,1.0,6.0,62,0.00,,,0.00,WUHU216DAVISVP2,2013-04-29 04:41:00,
2013-04-29 00:46:00,57.3,44.4,30.16,SSW,202,0.0,6.0,62,0.00,,,0.00,WUHU216DAVISVP2,2013-04-29 04:46:00,
2013-04-29 00:51:00,57.3,44.8,30.16,West,277,0.0,3.0,63,0.00,,,0.00,WUHU216DAVISVP2,2013-04-29 04:51:00,
2013-04-29 00:56:00,57.3,45.2,30.17,East,80,0.0,5.0,64,0.00,,,0.00,WUHU216DAVISVP2,2013-04-29 04:56:00,
2013-04-29 01:01:00,57.3,45.6,30.17,East,96,0.0,5.0,65,0.00,,,0.00,WUHU216DAVISVP2,2013-04-29 05:01:00,
2013-04-29 01:06:00,57.3,45.6,30.17,ESE,111,1.0,5.0,65,0.00,,,0.00,WUHU216DAVISVP2,2013-04-29 05:06:00,
2013-04-29 01:11:00,57.2,45.9,30.16,East,86,0.0,5.0,66,0.00,,,0.00,WUHU216DAVISVP2,2013-04-29 05:11:00,
2013-04-29 01:16:00,57.2,46.3,30.16,SE,142,0.0,4.0,67,0.00,,,0.00,WUHU216DAVISVP2,2013-04-29 05:16:00,
2013-04-29 01:21:00,57.1,46.2,30.16,East,90,1.0,4.0,67,0.00,,,0.00,WUHU216DAVISVP2,2013-04-29 05:21:00,
2013-04-29 01:26:00,57.1,46.6,30.16,ENE,63,1.0,4.0,68,0.00,,,0.00,WUHU216DAVISVP2,2013-04-29 05:26:00,
2013-04-29 01:31:00,57.1,47.0,30.16,East,101,1.0,5.0,69,0.00,,,0.00,WUHU216DAVISVP2,2013-04-29 05:31:00,
2013-04-29 01:36:00,57.0,47.3,30.15,NE,48,0.0,5.0,70,0.00,,,0.00,WUHU216DAVISVP2,2013-04-29 05:36:00,
2013-04-29 01:41:00,57.0,47.7,30.16,ESE,113,0.0,5.0,71,0.00,,,0.00,WUHU216DAVISVP2,2013-04-29 05:41:00,
2013-04-29 01:46:00,57.0,48.1,30.16,SE,132,0.0,5.0,72,0.00,,,0.00,WUHU216DAVISVP2,2013-04-29 05:46:00,
2013-04-29 01:51:00,56.9,48.7,30.16,ESE,114,0.0,2.0,74,0.00,,,0.00,WUHU216DAVISVP2,2013-04-29 05:51:00,
2013-04-29 01:56:00,56.8,49.0,30.15,ESE,113,1.0,5.0,75,0.00,,,0.00,WUHU216DAVISVP2,2013-04-29 05:56:00,
2013-04-29 02:01:00,56.6,49.5,30.15,East,86,0.0,5.0,77,0.00,,,0.00,WUHU216DAVISVP2,2013-04-29 06:01:00,
2013-04-29 02:06:00,56.4,49.6,30.16,East,86,0.0,5.0,78,0.00,,,0.00,WUHU216DAVISVP2,2013-04-29 06:06:00,
2013-04-29 02:11:00,56.2,49.8,30.15,East,86,0.0,2.0,79,0.00,,,0.00,WUHU216DAVISVP2,2013-04-29 06:11:00,
2013-04-29 02:16:00,55.9,50.2,30.15,East,86,0.0,2.0,81,0.00,,,0.00,WUHU216DAVISVP2,2013-04-29 06:16:00,
2013-04-29 02:21:00,55.7,50.3,30.15,East,86,0.0,1.0,82,0.00,,,0.00,WUHU216DAVISVP2,2013-04-29 06:21:00,
2013-04-29 02:26:00,55.5,50.1,30.15,East,86,0.0,1.0,82,0.00,,,0.00,WUHU216DAVISVP2,2013-04-29 06:26:00,
2013-04-29 02:31:00,55.3,50.2,30.15,East,86,0.0,1.0,83,0.00,,,0.00,WUHU216DAVISVP2,2013-04-29 06:31:00,
2013-04-29 02:36:00,55.2,50.5,30.15,East,86,0.0,1.0,84,0.00,,,0.00,WUHU216DAVISVP2,2013-04-29 06:36:00,
2013-04-29 02:41:00,55.0,50.6,30.15,East,86,0.0,1.0,85,0.01,,,0.01,WUHU216DAVISVP2,2013-04-29 06:41:00,
2013-04-29 02:46:00,54.8,50.7,30.15,East,86,0.0,1.0,86,0.01,,,0.01,WUHU216DAVISVP2,2013-04-29 06:46:00,
2013-04-29 02:51:00,54.6,50.8,30.15,East,86,0.0,1.0,87,0.02,,,0.02,WUHU216DAVISVP2,2013-04-29 06:51:00,
2013-04-29 02:56:00,54.4,50.6,30.14,East,86,0.0,1.0,87,0.02,,,0.02,WUHU216DAVISVP2,2013-04-29 06:56:00,
2013-04-29 03:01:00,54.2,50.7,30.14,East,86,0.0,1.0,88,0.03,,,0.03,WUHU216DAVISVP2,2013-04-29 07:01:00,
2013-04-29 03:06:00,54.0,50.8,30.14,East,86,0.0,2.0,89,0.03,,,0.03,WUHU216DAVISVP2,2013-04-29 07:06:00,
2013-04-29 03:11:00,53.8,50.9,30.14,East,86,0.0,2.0,90,0.03,,,0.03,WUHU216DAVISVP2,2013-04-29 07:11:00,
2013-04-29 03:16:00,53.7,50.8,30.14,ESE,123,1.0,2.0,90,0.03,,,0.03,WUHU216DAVISVP2,2013-04-29 07:16:00,
2013-04-29 03:21:00,53.6,51.0,30.13,East,98,2.0,3.0,91,0.03,,,0.03,WUHU216DAVISVP2,2013-04-29 07:21:00,
2013-04-29 03:26:00,53.5,51.2,30.13,SE,142,0.0,4.0,92,0.03,,,0.03,WUHU216DAVISVP2,2013-04-29 07:26:00,
2013-04-29 03:31:00,53.5,51.2,30.13,SE,135,0.0,4.0,92,0.04,,,0.04,WUHU216DAVISVP2,2013-04-29 07:31:00,
2013-04-29 03:36:00,53.5,51.2,30.13,SE,135,0.0,4.0,92,0.04,,,0.04,WUHU216DAVISVP2,2013-04-29 07:36:00,
2013-04-29 03:41:00,53.4,51.1,30.13,SE,138,0.0,4.0,92,0.03,,,0.04,WUHU216DAVISVP2,2013-04-29 07:41:00,
2013-04-29 03:46:00,53.4,51.4,30.13,SE,134,0.0,3.0,93,0.03,,,0.04,WUHU216DAVISVP2,2013-04-29 07:46:00,
2013-04-29 03:51:00,53.4,51.4,30.13,SE,125,0.0,3.0,93,0.02,,,0.04,WUHU216DAVISVP2,2013-04-29 07:51:00,
2013-04-29 03:56:00,53.4,51.4,30.13,SE,125,0.0,3.0,93,0.02,,,0.04,WUHU216DAVISVP2,2013-04-29 07:56:00,
2013-04-29 04:01:00,53.4,51.4,30.13,SE,125,0.0,3.0,93,0.01,,,0.04,WUHU216DAVISVP2,2013-04-29 08:01:00,
2013-04-29 04:06:00,53.4,51.7,30.12,ESE,113,1.0,3.0,94,0.01,,,0.04,WUHU216DAVISVP2,2013-04-29 08:06:00,
2013-04-29 04:11:00,53.5,51.8,30.12,ESE,113,0.0,3.0,94,0.01,,,0.04,WUHU216DAVISVP2,2013-04-29 08:11:00,
2013-04-29 04:16:00,53.5,51.8,30.12,ESE,114,0.0,3.0,94,0.01,,,0.04,WUHU216DAVISVP2,2013-04-29 08:16:00,
2013-04-29 04:21:00,53.5,51.8,30.12,ESE,114,0.0,3.0,94,0.01,,,0.04,WUHU216DAVISVP2,2013-04-29 08:21:00,
2013-04-29 04:26:00,53.6,51.9,30.12,ESE,114,0.0,2.0,94,0.01,,,0.04,WUHU216DAVISVP2,2013-04-29 08:26:00,
2013-04-29 04:31:00,53.6,51.9,30.12,SE,132,0.0,3.0,94,0.00,,,0.04,WUHU216DAVISVP2,2013-04-29 08:31:00,
2013-04-29 04:36:00,53.6,51.9,30.12,ESE,122,1.0,3.0,94,0.00,,,0.04,WUHU216DAVISVP2,2013-04-29 08:36:00,
2013-04-29 04:41:00,53.7,52.3,30.11,ESE,123,0.0,3.0,95,0.00,,,0.04,WUHU216DAVISVP2,2013-04-29 08:41:00,
2013-04-29 04:46:00,53.7,52.3,30.11,ESE,123,0.0,3.0,95,0.00,,,0.04,WUHU216DAVISVP2,2013-04-29 08:46:00,
2013-04-29 04:51:00,53.8,52.4,30.11,SE,130,0.0,4.0,95,0.00,,,0.04,WUHU216DAVISVP2,2013-04-29 08:51:00,
2013-04-29 04:56:00,53.8,52.4,30.11,SE,129,1.0,4.0,95,0.00,,,0.04,WUHU216DAVISVP2,2013-04-29 08:56:00,
2013-04-29 05:01:00,53.8,52.4,30.11,ESE,111,0.0,4.0,95,0.00,,,0.04,WUHU216DAVISVP2,2013-04-29 09:01:00,
2013-04-29 05:06:00,53.9,52.5,30.11,ESE,112,0.0,4.0,95,0.01,,,0.05,WUHU216DAVISVP2,2013-04-29 09:06:00,
2013-04-29 05:11:00,53.9,52.5,30.11,SE,135,1.0,4.0,95,0.01,,,0.05,WUHU216DAVISVP2,2013-04-29 09:11:00,
2013-04-29 05:16:00,54.0,52.6,30.11,SE,145,0.0,4.0,95,0.01,,,0.05,WUHU216DAVISVP2,2013-04-29 09:16:00,
2013-04-29 05:21:00,54.0,52.9,30.11,North,5,1.0,4.0,96,0.01,,,0.05,WUHU216DAVISVP2,2013-04-29 09:21:00,
2013-04-29 05:26:00,54.1,52.9,30.11,SE,131,1.0,4.0,96,0.01,,,0.05,WUHU216DAVISVP2,2013-04-29 09:26:00,
2013-04-29 05:31:00,54.1,52.9,30.11,East,92,0.0,4.0,96,0.01,,,0.05,WUHU216DAVISVP2,2013-04-29 09:31:00,
2013-04-29 05:36:00,54.2,53.0,30.11,East,88,1.0,2.0,96,0.02,,,0.06,WUHU216DAVISVP2,2013-04-29 09:36:00,
2013-04-29 05:41:00,54.2,52.8,30.11,ESE,109,1.0,3.0,95,0.02,,,0.06,WUHU216DAVISVP2,2013-04-29 09:41:00,
2013-04-29 05:46:00,54.2,53.0,30.11,ESE,109,0.0,3.0,96,0.02,,,0.06,WUHU216DAVISVP2,2013-04-29 09:46:00,
2013-04-29 05:51:00,54.3,53.1,30.10,ESE,111,0.0,3.0,96,0.02,,,0.06,WUHU216DAVISVP2,2013-04-29 09:51:00,
2013-04-29 05:56:00,54.3,53.1,30.10,ESE,111,1.0,3.0,96,0.02,,,0.06,WUHU216DAVISVP2,2013-04-29 09:56:00,
2013-04-29 06:01:00,54.3,53.1,30.10,East,96,1.0,4.0,96,0.02,,,0.06,WUHU216DAVISVP2,2013-04-29 10:01:00,
2013-04-29 06:06:00,54.3,53.1,30.10,East,98,0.0,4.0,96,0.02,,,0.07,WUHU216DAVISVP2,2013-04-29 10:06:00,
2013-04-29 06:11:00,54.3,53.1,30.11,ESE,103,0.0,4.0,96,0.02,,,0.07,WUHU216DAVISVP2,2013-04-29 10:11:00,
2013-04-29 06:16:00,54.3,53.1,30.11,ESE,107,1.0,4.0,96,0.02,,,0.07,WUHU216DAVISVP2,2013-04-29 10:16:00,
2013-04-29 06:21:00,54.3,53.1,30.11,ESE,111,0.0,3.0,96,0.02,,,0.07,WUHU216DAVISVP2,2013-04-29 10:21:00,
2013-04-29 06:26:00,54.3,53.1,30.11,SSE,157,0.0,3.0,96,0.02,,,0.07,WUHU216DAVISVP2,2013-04-29 10:26:00,
2013-04-29 06:31:00,54.3,53.1,30.11,SSE,164,0.0,4.0,96,0.03,,,0.08,WUHU216DAVISVP2,2013-04-29 10:31:00,
2013-04-29 06:36:00,54.3,53.1,30.11,SE,125,1.0,4.0,96,0.02,,,0.08,WUHU216DAVISVP2,2013-04-29 10:36:00,
2013-04-29 06:41:00,54.3,53.1,30.11,SE,125,0.0,4.0,96,0.02,,,0.08,WUHU216DAVISVP2,2013-04-29 10:41:00,
2013-04-29 06:46:00,54.3,53.1,30.11,ESE,112,2.0,4.0,96,0.02,,,0.08,WUHU216DAVISVP2,2013-04-29 10:46:00,
2013-04-29 06:51:00,54.2,53.0,30.11,East,92,0.0,3.0,96,0.02,,,0.08,WUHU216DAVISVP2,2013-04-29 10:51:00,
2013-04-29 06:56:00,54.2,53.0,30.11,East,92,0.0,3.0,96,0.02,,,0.08,WUHU216DAVISVP2,2013-04-29 10:56:00,
2013-04-29 07:01:00,54.2,53.0,30.11,ESE,119,1.0,3.0,96,0.02,,,0.08,WUHU216DAVISVP2,2013-04-29 11:01:00,
2013-04-29 07:06:00,54.2,53.0,30.12,East,101,0.0,5.0,96,0.01,,,0.08,WUHU216DAVISVP2,2013-04-29 11:06:00,
2013-04-29 07:11:00,54.2,53.0,30.12,ESE,103,0.0,5.0,96,0.01,,,0.08,WUHU216DAVISVP2,2013-04-29 11:11:00,
2013-04-29 07:16:00,54.2,53.0,30.12,ESE,103,0.0,5.0,96,0.02,,,0.09,WUHU216DAVISVP2,2013-04-29 11:16:00,
2013-04-29 07:21:00,54.2,53.0,30.12,ESE,103,0.0,5.0,96,0.02,,,0.09,WUHU216DAVISVP2,2013-04-29 11:21:00,
2013-04-29 07:26:00,54.2,53.0,30.12,ESE,103,0.0,3.0,96,0.02,,,0.09,WUHU216DAVISVP2,2013-04-29 11:26:00,
2013-04-29 07:31:00,54.2,53.0,30.12,ESE,112,0.0,5.0,96,0.01,,,0.09,WUHU216DAVISVP2,2013-04-29 11:31:00,
2013-04-29 07:36:00,54.2,53.0,30.12,ENE,59,1.0,5.0,96,0.02,,,0.10,WUHU216DAVISVP2,2013-04-29 11:36:00,
2013-04-29 07:41:00,54.1,52.9,30.12,ESE,109,0.0,5.0,96,0.02,,,0.10,WUHU216DAVISVP2,2013-04-29 11:41:00,
2013-04-29 07:46:00,54.2,53.0,30.13,SE,134,0.0,5.0,96,0.03,,,0.11,WUHU216DAVISVP2,2013-04-29 11:46:00,
2013-04-29 07:51:00,54.2,53.0,30.13,SE,126,0.0,4.0,96,0.04,,,0.12,WUHU216DAVISVP2,2013-04-29 11:51:00,
2013-04-29 07:56:00,54.2,53.0,30.13,SE,126,0.0,4.0,96,0.04,,,0.12,WUHU216DAVISVP2,2013-04-29 11:56:00,
2013-04-29 08:01:00,54.3,53.1,30.13,ESE,111,2.0,4.0,96,0.05,,,0.13,WUHU216DAVISVP2,2013-04-29 12:01:00,
2013-04-29 08:06:00,54.2,53.0,30.13,ESE,111,0.0,4.0,96,0.05,,,0.13,WUHU216DAVISVP2,2013-04-29 12:06:00,
2013-04-29 08:11:00,54.3,53.2,30.13,ESE,123,1.0,4.0,96,0.06,,,0.14,WUHU216DAVISVP2,2013-04-29 12:11:00,
2013-04-29 08:16:00,54.3,53.2,30.12,SE,137,1.0,5.0,96,0.05,,,0.14,WUHU216DAVISVP2,2013-04-29 12:16:00,
2013-04-29 08:21:00,54.4,53.3,30.12,ESE,112,0.0,5.0,96,0.05,,,0.14,WUHU216DAVISVP2,2013-04-29 12:21:00,
2013-04-29 08:26:00,54.4,53.3,30.12,ESE,123,0.0,5.0,96,0.06,,,0.15,WUHU216DAVISVP2,2013-04-29 12:26:00,
2013-04-29 08:31:00,54.4,53.6,30.12,East,94,1.0,4.0,97,0.06,,,0.16,WUHU216DAVISVP2,2013-04-29 12:31:00,
2013-04-29 08:36:00,54.5,53.7,30.12,East,94,0.0,4.0,97,0.06,,,0.16,WUHU216DAVISVP2,2013-04-29 12:36:00,
2013-04-29 08:41:00,54.6,53.8,30.12,East,98,1.0,4.0,97,0.06,,,0.16,WUHU216DAVISVP2,2013-04-29 12:41:00,
2013-04-29 08:46:00,54.6,53.5,30.12,South,174,0.0,4.0,96,0.05,,,0.16,WUHU216DAVISVP2,2013-04-29 12:46:00,
2013-04-29 08:51:00,54.7,53.9,30.12,ENE,70,5.0,5.0,97,0.05,,,0.17,WUHU216DAVISVP2,2013-04-29 12:51:00,
2013-04-29 08:56:00,54.7,53.6,30.11,ESE,110,0.0,5.0,96,0.05,,,0.17,WUHU216DAVISVP2,2013-04-29 12:56:00,
2013-04-29 09:01:00,54.7,53.9,30.12,ESE,110,1.0,5.0,97,0.04,,,0.17,WUHU216DAVISVP2,2013-04-29 13:01:00,
2013-04-29 09:06:00,54.8,54.0,30.11,East,96,2.0,7.0,97,0.04,,,0.17,WUHU216DAVISVP2,2013-04-29 13:06:00,
2013-04-29 09:11:00,54.8,54.0,30.11,ESE,117,0.0,7.0,97,0.03,,,0.17,WUHU216DAVISVP2,2013-04-29 13:11:00,
2013-04-29 09:16:00,54.8,54.0,30.11,ESE,118,1.0,7.0,97,0.04,,,0.18,WUHU216DAVISVP2,2013-04-29 13:16:00,
2013-04-29 09:21:00,54.9,54.1,30.11,East,84,1.0,7.0,97,0.04,,,0.18,WUHU216DAVISVP2,2013-04-29 13:21:00,
2013-04-29 09:26:00,55.0,54.2,30.11,East,84,0.0,4.0,97,0.04,,,0.19,WUHU216DAVISVP2,2013-04-29 13:26:00,
2013-04-29 09:31:00,55.0,54.2,30.11,East,101,3.0,5.0,97,0.03,,,0.19,WUHU216DAVISVP2,2013-04-29 13:31:00,
2013-04-29 09:36:00,55.0,54.2,30.11,ESE,108,0.0,5.0,97,0.03,,,0.19,WUHU216DAVISVP2,2013-04-29 13:36:00,
2013-04-29 09:41:00,55.2,54.4,30.11,ESE,108,0.0,5.0,97,0.04,,,0.20,WUHU216DAVISVP2,2013-04-29 13:41:00,
2013-04-29 09:46:00,55.3,54.5,30.10,ESE,120,2.0,5.0,97,0.04,,,0.20,WUHU216DAVISVP2,2013-04-29 13:46:00,
2013-04-29 09:51:00,55.4,54.6,30.10,SE,126,1.0,7.0,97,0.03,,,0.20,WUHU216DAVISVP2,2013-04-29 13:51:00,
2013-04-29 09:56:00,55.5,54.7,30.10,East,100,0.0,7.0,97,0.04,,,0.21,WUHU216DAVISVP2,2013-04-29 13:56:00,
2013-04-29 10:01:00,55.5,54.7,30.10,SE,136,0.0,7.0,97,0.04,,,0.21,WUHU216DAVISVP2,2013-04-29 14:01:00,
2013-04-29 10:06:00,55.7,54.9,30.10,SE,132,1.0,7.0,97,0.04,,,0.21,WUHU216DAVISVP2,2013-04-29 14:06:00,
2013-04-29 10:11:00,55.8,55.0,30.10,ESE,113,2.0,4.0,97,0.04,,,0.21,WUHU216DAVISVP2,2013-04-29 14:11:00,
2013-04-29 10:16:00,55.8,55.0,30.10,ESE,113,1.0,5.0,97,0.03,,,0.21,WUHU216DAVISVP2,2013-04-29 14:16:00,
2013-04-29 10:21:00,55.9,55.1,30.09,ESE,123,1.0,5.0,97,0.03,,,0.21,WUHU216DAVISVP2,2013-04-29 14:21:00,
2013-04-29 10:26:00,56.0,55.2,30.10,SSE,153,0.0,5.0,97,0.02,,,0.21,WUHU216DAVISVP2,2013-04-29 14:26:00,
2013-04-29 10:31:00,56.1,55.3,30.10,ESE,121,2.0,5.0,97,0.03,,,0.22,WUHU216DAVISVP2,2013-04-29 14:31:00,
2013-04-29 10:36:00,56.2,55.4,30.10,ESE,115,0.0,5.0,97,0.02,,,0.22,WUHU216DAVISVP2,2013-04-29 14:36:00,
2013-04-29 10:41:00,56.3,55.5,30.10,ESE,115,0.0,4.0,97,0.02,,,0.22,WUHU216DAVISVP2,2013-04-29 14:41:00,
2013-04-29 10:46:00,56.3,55.5,30.10,ESE,118,0.0,2.0,97,0.02,,,0.22,WUHU216DAVISVP2,2013-04-29 14:46:00,
2013-04-29 10:51:00,56.4,55.6,30.10,ESE,119,1.0,3.0,97,0.02,,,0.22,WUHU216DAVISVP2,2013-04-29 14:51:00,
2013-04-29 10:56:00,56.5,55.7,30.10,ESE,119,0.0,3.0,97,0.02,,,0.23,WUHU216DAVISVP2,2013-04-29 14:56:00,
2013-04-29 11:01:00,56.7,55.9,30.10,South,184,1.0,3.0,97,0.02,,,0.23,WUHU216DAVISVP2,2013-04-29 15:01:00,
2013-04-29 11:06:00,56.8,55.9,30.10,ESE,116,0.0,3.0,97,0.02,,,0.23,WUHU216DAVISVP2,2013-04-29 15:06:00,
2013-04-29 11:11:00,57.0,56.1,30.10,SW,230,0.0,3.0,97,0.02,,,0.23,WUHU216DAVISVP2,2013-04-29 15:11:00,
2013-04-29 11:16:00,57.2,56.3,30.10,South,175,0.0,3.0,97,0.02,,,0.23,WUHU216DAVISVP2,2013-04-29 15:16:00,
2013-04-29 11:21:00,57.3,56.4,30.10,ESE,103,1.0,3.0,97,0.02,,,0.23,WUHU216DAVISVP2,2013-04-29 15:21:00,
2013-04-29 11:26:00,57.5,56.6,30.10,WNW,288,1.0,3.0,97,0.02,,,0.23,WUHU216DAVISVP2,2013-04-29 15:26:00,
2013-04-29 11:31:00,57.6,56.7,30.10,ESE,114,0.0,5.0,97,0.01,,,0.23,WUHU216DAVISVP2,2013-04-29 15:31:00,
2013-04-29 11:36:00,57.7,56.9,30.09,East,84,2.0,5.0,97,0.01,,,0.23,WUHU216DAVISVP2,2013-04-29 15:36:00,
2013-04-29 11:41:00,57.8,57.0,30.09,SE,130,0.0,5.0,97,0.01,,,0.23,WUHU216DAVISVP2,2013-04-29 15:41:00,
2013-04-29 11:46:00,57.9,57.1,30.09,East,94,0.0,5.0,97,0.01,,,0.23,WUHU216DAVISVP2,2013-04-29 15:46:00,
2013-04-29 11:51:00,57.9,57.1,30.09,ENE,70,4.0,5.0,97,0.01,,,0.23,WUHU216DAVISVP2,2013-04-29 15:51:00,
2013-04-29 11:56:00,57.9,57.1,30.09,SSW,197,1.0,4.0,97,0.01,,,0.24,WUHU216DAVISVP2,2013-04-29 15:56:00,
2013-04-29 12:01:00,58.0,57.2,30.09,ESE,117,2.0,5.0,97,0.01,,,0.24,WUHU216DAVISVP2,2013-04-29 16:01:00,
2013-04-29 12:06:00,58.0,56.9,30.09,SSE,159,1.0,5.0,96,0.01,,,0.24,WUHU216DAVISVP2,2013-04-29 16:06:00,
2013-04-29 12:11:00,58.2,57.0,30.09,NE,38,0.0,10.0,96,0.01,,,0.24,WUHU216DAVISVP2,2013-04-29 16:11:00,
2013-04-29 12:16:00,58.2,57.0,30.09,East,92,5.0,10.0,96,0.01,,,0.24,WUHU216DAVISVP2,2013-04-29 16:16:00,
2013-04-29 12:21:00,58.2,57.0,30.09,East,84,1.0,10.0,96,0.01,,,0.24,WUHU216DAVISVP2,2013-04-29 16:21:00,
2013-04-29 12:26:00,58.4,57.2,30.09,WSW,238,0.0,10.0,96,0.01,,,0.24,WUHU216DAVISVP2,2013-04-29 16:26:00,
2013-04-29 12:31:00,58.3,56.8,30.09,West,267,1.0,7.0,95,0.01,,,0.24,WUHU216DAVISVP2,2013-04-29 16:31:00,
2013-04-29 12:36:00,58.5,57.3,30.09,SW,218,1.0,5.0,96,0.01,,,0.24,WUHU216DAVISVP2,2013-04-29 16:36:00,
2013-04-29 12:41:00,58.7,57.2,30.09,East,91,1.0,4.0,95,0.01,,,0.24,WUHU216DAVISVP2,2013-04-29 16:41:00,
2013-04-29 12:46:00,58.6,57.1,30.09,East,94,0.0,4.0,95,0.01,,,0.24,WUHU216DAVISVP2,2013-04-29 16:46:00,
2013-04-29 12:51:00,58.6,57.1,30.09,NE,36,1.0,4.0,95,0.02,,,0.25,WUHU216DAVISVP2,2013-04-29 16:51:00,
2013-04-29 12:56:00,58.5,57.0,30.09,East,85,2.0,4.0,95,0.01,,,0.25,WUHU216DAVISVP2,2013-04-29 16:56:00,
2013-04-29 13:01:00,58.5,57.0,30.09,SE,133,1.0,4.0,95,0.01,,,0.25,WUHU216DAVISVP2,2013-04-29 17:01:00,
2013-04-29 13:06:00,58.4,56.9,30.09,ESE,112,2.0,5.0,95,0.01,,,0.25,WUHU216DAVISVP2,2013-04-29 17:06:00,
2013-04-29 13:11:00,58.4,56.9,30.09,ENE,72,1.0,5.0,95,0.01,,,0.25,WUHU216DAVISVP2,2013-04-29 17:11:00,
2013-04-29 13:16:00,58.4,56.9,30.09,ESE,121,0.0,4.0,95,0.01,,,0.25,WUHU216DAVISVP2,2013-04-29 17:16:00,
2013-04-29 13:21:00,58.3,56.8,30.09,NNW,336,0.0,4.0,95,0.01,,,0.25,WUHU216DAVISVP2,2013-04-29 17:21:00,
2013-04-29 13:26:00,58.2,56.7,30.09,East,96,0.0,4.0,95,0.01,,,0.25,WUHU216DAVISVP2,2013-04-29 17:26:00,
2013-04-29 13:31:00,58.1,56.6,30.09,ENE,70,0.0,4.0,95,0.01,,,0.25,WUHU216DAVISVP2,2013-04-29 17:31:00,
2013-04-29 13:36:00,58.0,56.5,30.09,ESE,110,0.0,5.0,95,0.01,,,0.25,WUHU216DAVISVP2,2013-04-29 17:36:00,
2013-04-29 13:41:00,58.0,56.5,30.09,SE,128,0.0,5.0,95,0.01,,,0.25,WUHU216DAVISVP2,2013-04-29 17:41:00,
2013-04-29 13:46:00,57.9,56.4,30.09,South,181,1.0,7.0,95,0.01,,,0.25,WUHU216DAVISVP2,2013-04-29 17:46:00,
2013-04-29 13:51:00,57.9,56.4,30.09,ESE,109,1.0,7.0,95,0.00,,,0.25,WUHU216DAVISVP2,2013-04-29 17:51:00,
2013-04-29 13:56:00,58.0,56.5,30.09,WSW,240,1.0,7.0,95,0.00,,,0.25,WUHU216DAVISVP2,2013-04-29 17:56:00,
2013-04-29 14:01:00,57.9,56.4,30.08,ESE,108,2.0,5.0,95,0.00,,,0.25,WUHU216DAVISVP2,2013-04-29 18:01:00,
2013-04-29 14:06:00,57.9,56.4,30.08,SE,132,2.0,5.0,95,0.00,,,0.25,WUHU216DAVISVP2,2013-04-29 18:06:00,
2013-04-29 14:11:00,58.0,56.5,30.08,ENE,71,0.0,5.0,95,0.00,,,0.25,WUHU216DAVISVP2,2013-04-29 18:11:00,
2013-04-29 14:16:00,58.0,56.2,30.08,ESE,103,2.0,5.0,94,0.01,,,0.26,WUHU216DAVISVP2,2013-04-29 18:16:00,
2013-04-29 14:21:00,58.1,56.6,30.08,ENE,71,0.0,6.0,95,0.01,,,0.26,WUHU216DAVISVP2,2013-04-29 18:21:00,
2013-04-29 14:26:00,58.3,56.8,30.08,ESE,112,0.0,6.0,95,0.01,,,0.26,WUHU216DAVISVP2,2013-04-29 18:26:00,
2013-04-29 14:31:00,58.5,57.0,30.08,East,96,0.0,6.0,95,0.01,,,0.26,WUHU216DAVISVP2,2013-04-29 18:31:00,
2013-04-29 14:36:00,58.7,56.9,30.08,East,96,2.0,6.0,94,0.01,,,0.26,WUHU216DAVISVP2,2013-04-29 18:36:00,
2013-04-29 14:41:00,58.7,56.9,30.08,ENE,78,0.0,4.0,94,0.01,,,0.26,WUHU216DAVISVP2,2013-04-29 18:41:00,
2013-04-29 14:45:00,58.7,56.9,30.08,ESE,108,1.0,6.0,94,0.01,,,0.26,WUHU216DAVISVP2,2013-04-29 18:45:00,
2013-04-29 14:50:00,58.6,56.5,30.08,ESE,122,0.0,6.0,93,0.01,,,0.26,WUHU216DAVISVP2,2013-04-29 18:50:00,
2013-04-29 14:55:00,58.6,56.8,30.08,ESE,102,1.0,6.0,94,0.01,,,0.26,WUHU216DAVISVP2,2013-04-29 18:55:00,
2013-04-29 15:00:00,58.6,56.8,30.08,East,82,0.0,6.0,94,0.01,,,0.26,WUHU216DAVISVP2,2013-04-29 19:00:00,
2013-04-29 15:05:00,58.6,56.5,30.08,East,95,3.0,5.0,93,0.01,,,0.26,WUHU216DAVISVP2,2013-04-29 19:05:00,
2013-04-29 15:10:00,58.5,56.4,30.08,ESE,120,4.0,8.0,93,0.01,,,0.26,WUHU216DAVISVP2,2013-04-29 19:10:00,
2013-04-29 15:15:00,58.5,56.4,30.07,SE,139,0.0,8.0,93,0.00,,,0.26,WUHU216DAVISVP2,2013-04-29 19:15:00,
2013-04-29 15:20:00,58.5,56.7,30.07,NNE,28,0.0,8.0,94,0.00,,,0.26,WUHU216DAVISVP2,2013-04-29 19:20:00,
2013-04-29 15:25:00,58.5,56.4,30.07,SE,139,0.0,8.0,93,0.00,,,0.26,WUHU216DAVISVP2,2013-04-29 19:25:00,
2013-04-29 15:30:00,58.6,56.5,30.07,East,94,2.0,5.0,93,0.00,,,0.26,WUHU216DAVISVP2,2013-04-29 19:30:00,
2013-04-29 15:35:00,58.5,56.4,30.07,ENE,60,0.0,5.0,93,0.00,,,0.26,WUHU216DAVISVP2,2013-04-29 19:35:00,
2013-04-29 15:40:00,58.5,56.4,30.07,ESE,111,0.0,5.0,93,0.00,,,0.26,WUHU216DAVISVP2,2013-04-29 19:40:00,
2013-04-29 15:45:00,58.4,56.3,30.07,ESE,123,2.0,5.0,93,0.00,,,0.26,WUHU216DAVISVP2,2013-04-29 19:45:00,
2013-04-29 15:50:00,58.4,56.3,30.07,ESE,114,2.0,5.0,93,0.00,,,0.26,WUHU216DAVISVP2,2013-04-29 19:50:00,
2013-04-29 15:55:00,58.6,56.5,30.07,East,96,0.0,4.0,93,0.00,,,0.26,WUHU216DAVISVP2,2013-04-29 19:55:00,
2013-04-29 16:00:00,58.8,56.7,30.06,East,93,1.0,5.0,93,0.00,,,0.26,WUHU216DAVISVP2,2013-04-29 20:00:00,
2013-04-29 16:05:00,58.9,56.8,30.06,SSE,165,2.0,5.0,93,0.00,,,0.26,WUHU216DAVISVP2,2013-04-29 20:05:00,
2013-04-29 16:10:00,59.0,56.6,30.06,ESE,107,2.0,4.0,92,0.00,,,0.26,WUHU216DAVISVP2,2013-04-29 20:10:00,
2013-04-29 16:15:00,59.0,56.6,30.06,East,99,2.0,7.0,92,0.00,,,0.26,WUHU216DAVISVP2,2013-04-29 20:15:00,
2013-04-29 16:20:00,58.8,56.2,30.06,SSE,155,2.0,7.0,91,0.00,,,0.26,WUHU216DAVISVP2,2013-04-29 20:20:00,
2013-04-29 16:25:00,58.7,56.1,30.06,SE,132,1.0,7.0,91,0.00,,,0.26,WUHU216DAVISVP2,2013-04-29 20:25:00,
2013-04-29 16:30:00,58.6,55.9,30.07,ENE,63,1.0,6.0,91,0.00,,,0.26,WUHU216DAVISVP2,2013-04-29 20:30:00,
2013-04-29 16:35:00,58.5,56.1,30.07,East,84,0.0,6.0,92,0.00,,,0.26,WUHU216DAVISVP2,2013-04-29 20:35:00,
2013-04-29 16:40:00,58.4,56.0,30.07,SSW,198,0.0,6.0,92,0.00,,,0.26,WUHU216DAVISVP2,2013-04-29 20:40:00,
2013-04-29 16:45:00,58.4,56.3,30.07,SSE,157,2.0,6.0,93,0.00,,,0.26,WUHU216DAVISVP2,2013-04-29 20:45:00,
2013-04-29 16:50:00,58.3,56.2,30.07,ENE,70,1.0,5.0,93,0.00,,,0.26,WUHU216DAVISVP2,2013-04-29 20:50:00,
2013-04-29 16:55:00,58.3,56.2,30.07,SSE,150,2.0,5.0,93,0.00,,,0.26,WUHU216DAVISVP2,2013-04-29 20:55:00,
2013-04-29 17:00:00,58.4,56.3,30.07,NNW,338,1.0,4.0,93,0.00,,,0.26,WUHU216DAVISVP2,2013-04-29 21:00:00,
2013-04-29 17:05:00,58.4,56.6,30.07,NNE,12,1.0,3.0,94,0.00,,,0.26,WUHU216DAVISVP2,2013-04-29 21:05:00,
2013-04-29 17:10:00,58.3,56.2,30.07,SE,126,1.0,3.0,93,0.00,,,0.26,WUHU216DAVISVP2,2013-04-29 21:10:00,
2013-04-29 17:15:00,58.3,56.5,30.07,ESE,111,3.0,7.0,94,0.00,,,0.26,WUHU216DAVISVP2,2013-04-29 21:15:00,
2013-04-29 17:20:00,58.2,56.1,30.07,ESE,119,1.0,9.0,93,0.00,,,0.26,WUHU216DAVISVP2,2013-04-29 21:20:00,
2013-04-29 17:25:00,58.1,56.3,30.07,ESE,119,3.0,9.0,94,0.00,,,0.26,WUHU216DAVISVP2,2013-04-29 21:25:00,
2013-04-29 17:30:00,58.0,56.2,30.07,East,98,0.0,9.0,94,0.00,,,0.26,WUHU216DAVISVP2,2013-04-29 21:30:00,
2013-04-29 17:35:00,57.9,56.1,30.07,East,93,0.0,9.0,94,0.00,,,0.26,WUHU216DAVISVP2,2013-04-29 21:35:00,
2013-04-29 17:40:00,57.8,56.0,30.07,East,84,3.0,7.0,94,0.00,,,0.26,WUHU216DAVISVP2,2013-04-29 21:40:00,
2013-04-29 17:45:00,57.6,55.8,30.07,East,99,0.0,7.0,94,0.00,,,0.26,WUHU216DAVISVP2,2013-04-29 21:45:00,
2013-04-29 17:50:00,57.5,55.7,30.07,ESE,114,3.0,10.0,94,0.00,,,0.26,WUHU216DAVISVP2,2013-04-29 21:50:00,
2013-04-29 17:55:00,57.4,55.6,30.07,East,90,2.0,10.0,94,0.00,,,0.26,WUHU216DAVISVP2,2013-04-29 21:55:00,
2013-04-29 18:00:00,57.3,55.5,30.07,ESE,110,0.0,10.0,94,0.00,,,0.26,WUHU216DAVISVP2,2013-04-29 22:00:00,
2013-04-29 18:05:00,57.4,55.9,30.07,ENE,67,4.0,10.0,95,0.00,,,0.26,WUHU216DAVISVP2,2013-04-29 22:05:00,
2013-04-29 18:10:00,57.3,55.5,30.07,SE,134,1.0,7.0,94,0.00,,,0.26,WUHU216DAVISVP2,2013-04-29 22:10:00,
2013-04-29 18:15:00,57.3,55.5,30.07,East,95,1.0,7.0,94,0.00,,,0.26,WUHU216DAVISVP2,2013-04-29 22:15:00,
2013-04-29 18:20:00,57.3,55.5,30.07,East,83,3.0,8.0,94,0.00,,,0.26,WUHU216DAVISVP2,2013-04-29 22:20:00,
2013-04-29 18:25:00,57.3,55.5,30.07,East,101,1.0,8.0,94,0.00,,,0.26,WUHU216DAVISVP2,2013-04-29 22:25:00,
2013-04-29 18:30:00,57.3,55.3,30.07,ESE,105,3.0,8.0,93,0.00,,,0.26,WUHU216DAVISVP2,2013-04-29 22:30:00,
2013-04-29 18:35:00,57.3,55.5,30.07,SE,128,1.0,8.0,94,0.00,,,0.26,WUHU216DAVISVP2,2013-04-29 22:35:00,
2013-04-29 18:40:00,57.2,55.4,30.07,SE,135,0.0,8.0,94,0.00,,,0.26,WUHU216DAVISVP2,2013-04-29 22:40:00,
2013-04-29 18:45:00,57.2,55.2,30.07,ESE,107,2.0,8.0,93,0.00,,,0.26,WUHU216DAVISVP2,2013-04-29 22:45:00,
2013-04-29 18:50:00,57.1,55.4,30.07,ESE,111,2.0,8.0,94,0.00,,,0.26,WUHU216DAVISVP2,2013-04-29 22:50:00,
2013-04-29 18:55:00,57.1,55.4,30.07,East,97,2.0,8.0,94,0.00,,,0.26,WUHU216DAVISVP2,2013-04-29 22:55:00,
2013-04-29 19:00:00,57.0,55.3,30.07,SE,128,2.0,8.0,94,0.01,,,0.27,WUHU216DAVISVP2,2013-04-29 23:00:00,
2013-04-29 19:05:00,56.8,55.1,30.07,East,95,2.0,8.0,94,0.01,,,0.27,WUHU216DAVISVP2,2013-04-29 23:05:00,
2013-04-29 19:10:00,56.7,55.0,30.08,SE,126,0.0,8.0,94,0.01,,,0.27,WUHU216DAVISVP2,2013-04-29 23:10:00,
2013-04-29 19:15:00,56.6,54.9,30.08,ENE,71,0.0,7.0,94,0.01,,,0.27,WUHU216DAVISVP2,2013-04-29 23:15:00,
2013-04-29 19:20:00,56.4,54.7,30.08,SE,125,2.0,7.0,94,0.01,,,0.27,WUHU216DAVISVP2,2013-04-29 23:20:00,
2013-04-29 19:25:00,56.3,54.8,30.08,East,94,1.0,7.0,95,0.01,,,0.27,WUHU216DAVISVP2,2013-04-29 23:25:00,
2013-04-29 19:30:00,56.3,54.8,30.08,South,171,5.0,10.0,95,0.01,,,0.27,WUHU216DAVISVP2,2013-04-29 23:30:00,
2013-04-29 19:35:00,56.2,54.5,30.08,ESE,108,3.0,10.0,94,0.01,,,0.27,WUHU216DAVISVP2,2013-04-29 23:35:00,
2013-04-29 19:40:00,56.1,54.6,30.08,East,98,1.0,10.0,95,0.01,,,0.27,WUHU216DAVISVP2,2013-04-29 23:40:00,
2013-04-29 19:45:00,56.0,54.5,30.08,ESE,115,1.0,10.0,95,0.01,,,0.27,WUHU216DAVISVP2,2013-04-29 23:45:00,
2013-04-29 19:50:00,55.9,54.5,30.08,SE,131,0.0,10.0,95,0.01,,,0.27,WUHU216DAVISVP2,2013-04-29 23:50:00,
2013-04-29 19:55:00,55.9,54.5,30.08,East,92,3.0,6.0,95,0.01,,,0.27,WUHU216DAVISVP2,2013-04-29 23:55:00,
2013-04-29 20:00:00,55.8,54.4,30.08,East,82,3.0,5.0,95,0.00,,,0.27,WUHU216DAVISVP2,2013-04-30 00:00:00,
2013-04-29 20:05:00,55.8,54.4,30.08,ESE,105,0.0,6.0,95,0.00,,,0.27,WUHU216DAVISVP2,2013-04-30 00:05:00,
2013-04-29 20:10:00,55.7,54.3,30.08,ESE,103,1.0,6.0,95,0.00,,,0.27,WUHU216DAVISVP2,2013-04-30 00:10:00,
2013-04-29 20:15:00,55.7,54.3,30.08,ESE,105,1.0,6.0,95,0.01,,,0.28,WUHU216DAVISVP2,2013-04-30 00:15:00,
2013-04-29 20:20:00,55.7,54.5,30.08,SE,134,0.0,5.0,96,0.01,,,0.28,WUHU216DAVISVP2,2013-04-30 00:20:00,
2013-04-29 20:25:00,55.6,54.4,30.09,SE,144,1.0,3.0,96,0.01,,,0.28,WUHU216DAVISVP2,2013-04-30 00:25:00,
2013-04-29 20:30:00,55.6,54.4,30.09,SSE,151,4.0,11.0,96,0.01,,,0.28,WUHU216DAVISVP2,2013-04-30 00:30:00,
2013-04-29 20:35:00,55.5,54.3,30.09,SSE,151,1.0,11.0,96,0.02,,,0.29,WUHU216DAVISVP2,2013-04-30 00:35:00,
2013-04-29 20:40:00,55.5,54.3,30.09,South,171,1.0,11.0,96,0.02,,,0.29,WUHU216DAVISVP2,2013-04-30 00:40:00,
2013-04-29 20:45:00,55.4,54.2,30.09,ESE,122,2.0,11.0,96,0.02,,,0.29,WUHU216DAVISVP2,2013-04-30 00:45:00,
2013-04-29 20:50:00,55.4,54.2,30.09,East,84,3.0,9.0,96,0.02,,,0.29,WUHU216DAVISVP2,2013-04-30 00:50:00,
2013-04-29 20:55:00,55.3,54.1,30.09,East,83,3.0,9.0,96,0.02,,,0.29,WUHU216DAVISVP2,2013-04-30 00:55:00,
2013-04-29 21:00:00,55.3,54.1,30.09,East,81,2.0,6.0,96,0.02,,,0.29,WUHU216DAVISVP2,2013-04-30 01:00:00,
2013-04-29 21:05:00,55.2,54.0,30.10,ESE,121,0.0,5.0,96,0.02,,,0.29,WUHU216DAVISVP2,2013-04-30 01:05:00,
2013-04-29 21:10:00,55.2,54.0,30.10,ESE,114,2.0,5.0,96,0.02,,,0.29,WUHU216DAVISVP2,2013-04-30 01:10:00,
2013-04-29 21:15:00,55.2,54.0,30.10,SE,136,0.0,5.0,96,0.01,,,0.29,WUHU216DAVISVP2,2013-04-30 01:15:00,
2013-04-29 21:20:00,55.2,54.0,30.10,East,94,1.0,4.0,96,0.01,,,0.29,WUHU216DAVISVP2,2013-04-30 01:20:00,
2013-04-29 21:25:00,55.2,54.0,30.10,East,94,0.0,4.0,96,0.01,,,0.29,WUHU216DAVISVP2,2013-04-30 01:25:00,
2013-04-29 21:30:00,55.2,54.0,30.10,East,96,2.0,3.0,96,0.01,,,0.29,WUHU216DAVISVP2,2013-04-30 01:30:00,
2013-04-29 21:35:00,55.2,54.0,30.10,ESE,121,3.0,5.0,96,0.00,,,0.29,WUHU216DAVISVP2,2013-04-30 01:35:00,
2013-04-29 21:40:00,55.2,54.0,30.10,East,101,2.0,7.0,96,0.01,,,0.30,WUHU216DAVISVP2,2013-04-30 01:40:00,
2013-04-29 21:45:00,55.2,54.0,30.10,SE,130,0.0,7.0,96,0.01,,,0.30,WUHU216DAVISVP2,2013-04-30 01:45:00,
2013-04-29 21:50:00,55.2,54.0,30.11,ESE,103,2.0,7.0,96,0.01,,,0.30,WUHU216DAVISVP2,2013-04-30 01:50:00,
2013-04-29 21:55:00,55.2,54.0,30.11,East,101,2.0,7.0,96,0.01,,,0.30,WUHU216DAVISVP2,2013-04-30 01:55:00,
2013-04-29 22:00:00,55.2,54.0,30.11,ESE,111,1.0,7.0,96,0.01,,,0.30,WUHU216DAVISVP2,2013-04-30 02:00:00,
2013-04-29 22:05:00,55.2,54.0,30.11,ESE,123,1.0,7.0,96,0.01,,,0.30,WUHU216DAVISVP2,2013-04-30 02:05:00,
2013-04-29 22:10:00,55.1,53.9,30.11,ESE,115,1.0,7.0,96,0.01,,,0.30,WUHU216DAVISVP2,2013-04-30 02:10:00,
2013-04-29 22:15:00,55.0,53.8,30.11,ESE,109,2.0,6.0,96,0.02,,,0.31,WUHU216DAVISVP2,2013-04-30 02:15:00,
2013-04-29 22:20:00,55.0,53.8,30.11,ESE,107,0.0,6.0,96,0.02,,,0.31,WUHU216DAVISVP2,2013-04-30 02:20:00,
2013-04-29 22:25:00,55.0,53.8,30.11,East,90,6.0,8.0,96,0.02,,,0.31,WUHU216DAVISVP2,2013-04-30 02:25:00,
2013-04-29 22:30:00,55.0,54.1,30.11,ESE,108,3.0,8.0,97,0.02,,,0.31,WUHU216DAVISVP2,2013-04-30 02:30:00,
2013-04-29 22:35:00,55.0,54.1,30.11,ESE,102,0.0,8.0,97,0.02,,,0.31,WUHU216DAVISVP2,2013-04-30 02:35:00,
2013-04-29 22:40:00,55.1,54.2,30.11,SE,138,2.0,8.0,97,0.01,,,0.31,WUHU216DAVISVP2,2013-04-30 02:40:00,
2013-04-29 22:45:00,55.1,54.2,30.11,ESE,116,3.0,9.0,97,0.02,,,0.32,WUHU216DAVISVP2,2013-04-30 02:45:00,
2013-04-29 22:50:00,55.1,54.2,30.11,ESE,106,2.0,9.0,97,0.02,,,0.32,WUHU216DAVISVP2,2013-04-30 02:50:00,
2013-04-29 22:55:00,55.1,54.2,30.11,ENE,76,4.0,10.0,97,0.03,,,0.33,WUHU216DAVISVP2,2013-04-30 02:55:00,
2013-04-29 23:00:00,55.1,54.2,30.11,East,97,2.0,10.0,97,0.03,,,0.33,WUHU216DAVISVP2,2013-04-30 03:00:00,
2013-04-29 23:05:00,55.1,54.2,30.11,SSE,153,0.0,10.0,97,0.03,,,0.33,WUHU216DAVISVP2,2013-04-30 03:05:00,
2013-04-29 23:10:00,55.1,54.2,30.11,SE,141,1.0,10.0,97,0.03,,,0.33,WUHU216DAVISVP2,2013-04-30 03:10:00,
2013-04-29 23:15:00,55.1,54.2,30.11,SE,132,2.0,7.0,97,0.03,,,0.34,WUHU216DAVISVP2,2013-04-30 03:15:00,
2013-04-29 23:20:00,55.1,54.2,30.11,ESE,123,2.0,7.0,97,0.03,,,0.34,WUHU216DAVISVP2,2013-04-30 03:20:00,
2013-04-29 23:25:00,55.1,54.2,30.10,ESE,109,4.0,6.0,97,0.03,,,0.34,WUHU216DAVISVP2,2013-04-30 03:25:00,
2013-04-29 23:30:00,55.1,54.2,30.11,SE,127,1.0,6.0,97,0.03,,,0.34,WUHU216DAVISVP2,2013-04-30 03:30:00,
2013-04-29 23:35:00,55.2,54.3,30.10,ESE,121,4.0,5.0,97,0.04,,,0.35,WUHU216DAVISVP2,2013-04-30 03:35:00,
2013-04-29 23:40:00,55.2,54.3,30.10,ESE,115,1.0,7.0,97,0.04,,,0.35,WUHU216DAVISVP2,2013-04-30 03:40:00,
2013-04-29 23:45:00,55.2,54.3,30.10,East,94,1.0,7.0,97,0.03,,,0.35,WUHU216DAVISVP2,2013-04-30 03:45:00,
2013-04-29 23:50:00,55.2,54.3,30.10,ESE,119,3.0,7.0,97,0.03,,,0.35,WUHU216DAVISVP2,2013-04-30 03:50:00,
2013-04-29 23:55:00,55.2,54.3,30.10,ESE,110,3.0,7.0,97,0.02,,,0.35,WUHU216DAVISVP2,2013-04-30 03:55:00,